#timestamp,LO_Frequency,Hit,StdDev 
1680426015.2,286047015.7,N
1680426035.9,286047016.1,N
1680426055.7,286047016.7,N
1680426075.6,286047015.2,N
1680426095.4,286047013.0,N
1680426115.2,286047013.5,N
1680426135.1,286047011.2,N
1680426136.0,286047011.2,N
1680426155.8,286047009.3,N
1680426175.7,286047010.0,N
1680426195.5,286047008.5,N
1680426215.3,286047007.4,N
1680426235.2,286047007.2,N
1680426255.0,286047005.5,N
1680426255.9,286047005.5,N
1680426275.7,286047001.5,N
1680426295.6,286047002.7,N
1680426315.4,286046998.5,N
1680426335.3,286046998.2,N
1680426355.1,286046997.6,N
1680426356.0,286046997.6,N
1680426375.8,286046993.9,N
1680426395.7,286046992.1,N
1680426415.5,286046993.2,N
1680426435.3,286046991.0,N
1680426455.2,286046988.6,N
1680426475.0,286046989.9,N
1680426475.9,286046989.9,N
1680426495.8,286046988.2,N
1680426515.6,286046985.4,N
1680426535.4,286046986.4,N
1680426555.3,286046985.0,N
1680426575.1,286046985.0,N
1680426595.8,286046980.9,N
1680426615.7,286046981.5,N
1680426635.5,286046979.3,N
1680426655.4,286046981.1,N
1680426675.2,286046981.7,N
1680426695.0,286046980.2,N
1680426695.9,286046980.2,N
1680426715.8,286046980.0,N
1680426735.6,286046980.0,N
1680426755.4,286046977.7,N
1680426775.3,286046977.3,N
1680426795.1,286046977.6,N
1680426815.9,286046978.6,N
1680426835.7,286046974.5,Y
1680426855.5,286046987.5,P
1680426875.4,286046987.7,P
1680426895.2,286046989.6,P
1680426915.1,286046987.0,Y
1680426916.0,286046987.0,P
1680426935.8,286047000.0,N
1680426955.6,286046999.7,N
1680426975.5,286047000.0,N
1680426995.3,286047000.9,N
1680427015.1,286046998.2,N
1680427035.9,286047000.9,N
1680427055.7,286047000.6,N
1680427075.5,286047000.3,N
1680427095.4,286047000.3,N
1680427115.2,286047000.1,N
1680427135.1,286046999.7,N
1680427136.0,286046999.7,N
1680427155.8,286047001.0,N
1680427175.6,286046999.7,N
1680427195.5,286047002.3,N
1680427215.3,286047000.7,N
1680427235.1,286047001.1,N
1680427255.9,286046998.8,N
1680427275.7,286046998.2,N
1680427295.6,286046999.3,N
1680427315.4,286046996.9,N
1680427335.2,286046997.0,N
1680427355.1,286046996.9,N
1680427356.0,286046996.9,N
1680427375.8,286046996.6,N
1680427395.6,286046997.1,N
1680427415.5,286046996.6,N
1680427435.3,286046996.5,N
1680427455.2,286046999.0,N
1680427475.9,286046998.3,N
1680427495.7,286046998.7,N
1680427515.6,286046998.7,N
1680427535.4,286046998.6,N
1680427555.2,286046998.4,N
1680427575.1,286046998.8,N
1680427576.0,286046998.8,N
1680427595.8,286046998.8,N
1680427615.7,286046998.1,N
1680427635.5,286047001.1,N
1680427655.3,286047001.1,N
1680427675.2,286046998.6,N
1680427695.9,286046998.7,N
1680427715.7,286046996.9,N
1680427735.6,286046997.2,N
1680427755.4,286046996.7,N
1680427775.3,286046995.1,Y
1680427795.1,286046997.6,P
1680427796.0,286046997.6,P
1680427815.8,286046997.5,P
1680427835.7,286046996.5,Y
1680427855.5,286046998.1,P
1680427875.3,286046998.4,P
1680427895.2,286047000.7,N
1680427915.0,286047000.6,N
1680427915.9,286047000.6,N
1680427935.8,286047001.2,N
1680427955.6,286046998.5,N
1680427975.4,286046998.9,N
1680427995.3,286046999.6,N
1680428015.1,286046996.9,N
1680428035.8,286046997.0,N
1680428055.7,286046996.7,N
1680428075.5,286046999.6,N
1680428095.4,286046999.4,N
1680428115.2,286046998.3,N
1680428135.0,286046999.5,N
1680428135.9,286046999.5,N
1680428155.8,286046999.5,N
1680428175.6,286046999.6,N
1680428195.4,286046996.8,N
1680428215.3,286046995.0,Y
1680428235.1,286046996.7,P
1680428255.9,286046998.8,N
1680428275.7,286046997.3,N
1680428295.5,286046999.4,N
1680428315.4,286046997.3,N
1680428335.2,286046996.9,Y
1680428355.0,286046998.4,P
1680428355.9,286046998.4,P
1680428375.8,286046996.5,P
1680428395.6,286046999.6,N
1680428415.5,286046996.6,Y
1680428435.3,286047000.3,P
1680428455.1,286047000.4,N
1680428475.9,286047001.2,N
1680428495.7,286046998.1,N
1680428515.5,286046998.1,N
1680428535.4,286046998.7,N
1680428555.2,286046999.1,N
1680428575.1,286046996.6,Y
1680428576.0,286046996.6,P
1680428595.8,286046999.4,N
1680428615.6,286046998.6,N
1680428635.5,286047000.4,N
1680428655.3,286046999.7,N
1680428675.1,286047002.4,N
1680428695.9,286047000.2,N
1680428715.7,286047001.8,N
1680428735.6,286047000.0,N
1680428755.4,286047001.6,N
1680428775.2,286047002.5,N
1680428795.1,286046999.8,N
1680428796.0,286046999.8,N
1680428815.8,286047002.7,N
1680428835.6,286047000.9,N
1680428855.5,286047001.1,N
1680428875.3,286047002.4,N
1680428895.2,286047000.5,N
1680428915.9,286047000.1,N
1680428935.7,286047000.5,N
1680428955.6,286047011.9,Y
1680428975.4,286046998.5,P
1680428995.2,286046999.5,N
1680429015.1,286046999.5,N
1680429016.0,286046999.5,N
1680429035.8,286046999.3,N
1680429055.7,286047000.9,N
1680429075.5,286046998.2,N
1680429095.3,286046998.6,N
1680429115.2,286046999.5,N
1680429135.0,286046999.0,N
1680429135.9,286046999.0,N
1680429155.7,286046999.1,N
1680429175.6,286046997.3,Y
1680429195.4,286046996.5,P
1680429215.3,286046997.7,N
1680429235.1,286046995.2,P
1680429236.0,286046995.2,Y
1680429255.8,286046998.9,P
1680429275.7,286046998.4,N
1680429295.5,286047000.6,N
1680429315.3,286047001.0,N
1680429335.2,286047000.4,N
1680429355.0,286047001.9,N
1680429355.9,286047001.9,N
1680429375.8,286047002.7,N
1680429395.6,286047000.9,N
1680429415.4,286047000.0,N
1680429435.3,286047000.9,N
1680429455.1,286047000.3,N
1680429475.8,286047002.5,N
1680429495.7,286047002.6,N
1680429515.5,286047002.1,N
1680429535.4,286047000.6,N
1680429555.2,286047000.5,N
1680429575.0,286046998.1,N
1680429575.9,286046998.1,N
1680429595.8,286047000.5,N
